This demonstration page uses our WeatherBlox Daily Observations layout. Learn more.

Left ArrowRight Arrow

Hourly Observations for April 26, 2020

Temp ( °F °C ) Dew Point ( °F °C ) Humidity (%) Winds ( mph kmh ) Pressure ( in mb ) Visibility ( mi km ) Precip ( " mm )
12:54 am 00:54 Clear 49 9.4 42 5.6 77 77 Calm 30.12 1020 10 16.0934 0 0
1:54 am 01:54 Clear 48 8.9 42 5.6 80 80 WNW 3 6 30.12 1020 10 16.0934 0 0
2:54 am 02:54 Clear 47 8.3 42 5.6 83 83 W 5 7 30.11 1020 10 16.0934 0 0
3:54 am 03:54 Clear 47 8.3 42 5.6 83 83 W 3 6 30.12 1020 10 16.0934 0 0
4:54 am 04:54 Clear 44 6.7 40 4.4 85 85 Calm 30.14 1021 7 11.26538 0 0
5:24 am 05:24 Clear with Mist and Fog 41 5 39 3.9 93 93 Calm 30.18 1022 2 3.21868 0 0
5:29 am 05:29 Clear with Mist and Fog 39 3.9 39 3.9 100 100 SW 3 6 30.19 1022 0.75 1.207005 0 0
5:39 am 05:39 Clear with Mist and Fog 41 5 39 3.9 93 93 Calm 30.18 1022 2 3.21868 0 0
5:46 am 05:46 Clear with Mist and Fog 39 3.9 38 3.3 96 96 Calm 30.18 1022 5 8.0467 0 0
5:54 am 05:54 Clear with Mist and Fog 40 4.4 38 3.3 93 93 Calm 30.14 1021 4 6.43736 0 0
6:54 am 06:54 Sunny with Mist and Fog 40 4.4 38 3.3 93 93 Calm 30.15 1021 3 4.82802 0 0
7:54 am 07:54 Sunny with Mist and Fog 45 7.2 41 5 86 86 Calm 30.16 1021 6 9.65604 0 0
8:54 am 08:54 Sunny 50 10 43 6.1 77 77 Calm 30.17 1022 10 16.0934 0 0
9:54 am 09:54 Sunny 57 13.9 45 7.2 64 64 S 3 6 30.16 1022 10 16.0934 0 0
10:54 am 10:54 Sunny 62 16.7 42 5.6 48 48 VRB 3 6 30.14 1021 10 16.0934 0 0
11:54 am 11:54 Sunny 65 18.3 37 2.8 36 36 SSW 5 7 30.14 1021 10 16.0934 0 0
12:54 pm 12:54 Cloudy 67 19.4 35 1.7 31 31 SSW 14 22 30.12 1020 10 16.0934 0 0
1:54 pm 13:54 Sunny 68 20 33 0.6 27 27 SSW 13 20 30.09 1019 10 16.0934 0 0
2:54 pm 14:54 Cloudy 68 20 35 1.7 30 30 S 13 20 30.07 1018 10 16.0934 0 0
3:54 pm 15:54 Mostly Cloudy 70 21.1 37 2.8 30 30 S 15 24 30.04 1017 10 16.0934 0 0
4:54 pm 16:54 Cloudy 68 20 37 2.8 32 32 S 14 22 30.04 1017 10 16.0934 0 0
5:54 pm 17:54 Partly Cloudy 69 20.6 38 3.3 32 32 SE 15 24 30.02 1017 10 16.0934 0 0
6:54 pm 18:54 Sunny 67 19.4 39 3.9 36 36 SE 17 28 30.02 1017 10 16.0934 0 0
7:54 pm 19:54 Sunny 65 18.3 41 5 42 42 SE 14 22 30 1016 10 16.0934 0 0
8:54 pm 20:54 Clear 64 17.8 41 5 43 43 SE 10 17 30 1016 10 16.0934 0 0
9:54 pm 21:54 Clear 62 16.7 43 6.1 50 50 SSE 14 22 30 1016 10 16.0934 0 0
10:54 pm 22:54 Partly Cloudy 62 16.7 43 6.1 50 50 SSE 14 22 30 1016 10 16.0934 0 0
11:54 pm 23:54 Mostly Clear 60 15.6 43 6.1 53 53 S 15 24 29.98 1015 10 16.0934 0 0

Powered by AerisWeather